Regional Weather Roundup
Issued by NWS

Home | Current Version | Previous Version | Text Only | Print | Product List | Glossary On
Versions: 1 2 3 4 5 6 7 8 9 10 11 12 13 14 15 16 17 18 19 20 21 22 23 24 25 26 27 28 29 30 31 32 33 34 35 36 37 38 39 40 41 42 43 44 45 46 47 48 49 50
000
ASUS44 KMEG 272110
RWRTN
TENNESSEE HOURLY STATE WEATHER ROUNDUP
NATIONAL WEATHER SERVICE MEMPHIS TN
400 PM CDT TUE SEP 27 2016

TNZ002-004-019-021-049-052-054-088>092-272200-
WEST TENNESSEE

CITY           SKY/WX    TMP DP  RH WIND       PRES   REMARKS
MEMPHIS INTL   MOSUNNY   81  36  19 NW7       29.96F
NWS MEMPHIS      N/A     81 N/A N/A MISG        N/A
JACKSON        SUNNY    N/A N/A N/A N7        29.96F
DYERSBURG      SUNNY    N/A N/A N/A MISG        N/A
UNION CITY     SUNNY     77  43  29 W7        29.94F
PARIS          SUNNY     73  41  31 CALM      29.96F
HUNTINGDON     SUNNY     77  41  27 CALM      29.94F
LEXINGTON      SUNNY     79  41  25 VRB3      29.95F
$$

TNZ008-025-027-028-033-062-065-066-272200-
NORTH MIDDLE TENNESSEE

CITY           SKY/WX    TMP DP  RH WIND       PRES   REMARKS
NASHVILLE      SUNNY     78  40  25 VRB5      29.95F
PORTLAND       SUNNY     75  41  29 VRB5      29.95S
CLARKSVILLE    SUNNY     75  43  31 SW10      29.94F
SMYRNA         SUNNY     78  44  29 VRB6      29.95F
COOKEVILLE     SUNNY     79  46  31 N7        29.94F
GALLATIN       SUNNY     77  41  27 VRB3      29.97S
CROSSVILLE     SUNNY     77  43  29 NW9       29.96F
$$

TNZ061-075-076-078-094-096-097-272200-
SOUTH MIDDLE TENNESSEE

CITY           SKY/WX    TMP DP  RH WIND       PRES   REMARKS
FAYETTEVILLE   SUNNY     79  43  27 CALM      29.93F
TULLAHOMA      PTSUNNY   77  39  25 N7        29.95F
WINCHESTER     PTSUNNY   81  45  28 W5        29.93F
MCMINNVILLE    SUNNY     77  48  36 N7        29.95S
COLUMBIA       SUNNY     77  43  29 CALM      29.94F
SHELBYVILLE    SUNNY     81  46  30 NE3       29.95F
$$

TNZ017-018-042-046-047-272200-
NORTHEAST TENNESSEE

CITY           SKY/WX    TMP DP  RH WIND       PRES   REMARKS
TRI CITIES     MOSUNNY   76  60  57 W9        29.91F
ELIZABETHTON   DRIZZLE   75  64  69 VRB5G14   29.92S
$$

TNZ012-013-036-069-073-074-272200-
CENTRAL EAST TENNESSEE

CITY           SKY/WX    TMP DP  RH WIND       PRES   REMARKS
KNOXVILLE      MOSUNNY   79  61  53 SW7       29.89F
OAK RIDGE      SUNNY     82  51  34 VRB3      29.91F
DOWNTOWN KNOXV SUNNY     81  59  47 SW6       29.89F
GATLINBURG     MOSUNNY   81  63  54 W5        29.89F
MORRISTOWN     SUNNY     77  55  47 NW8       29.91F
JACKSBORO      SUNNY     81  34  18 VRB5      29.93F
$$

TNZ083-085-099-272200-
SOUTHEAST TENNESSEE

CITY           SKY/WX    TMP DP  RH WIND       PRES   REMARKS
CHATTANOOGA    MOSUNNY   83  64  52 W7        29.89F
$$

SKY/WX REPORTED AS FAIR MEANS FEW OR NO CLOUDS BELOW
12 THOUSAND FEET.





USA.gov is the U.S. government's official web portal to all federal, state and local government web resources and services.